Location: Hilton Head Island
(32.2163°N, 80.7526°W)
Time: 19:47:25
(UTC-05:00)

Transit 2A - Pass Details

Date: 24 February 2026
Orbit: 590 x 954 km, 66.7° (Epoch: 7 March)

Event Time Altitude Azimuth Distance (km) Brightness Sun altitude
Rises 21:46:54 0° 317° (NW) 3,424 10.0 -44.6°
Reaches altitude 10° 21:50:04 10° 302° (WNW) 2,416 9.1 -45.2°
Enters shadow 21:50:36 12° 298° (WNW) 2,270 9.0 -45.3°
